Погода в Медвежьегорске

Погода в Медвежьегорске : погода сейчас, прогноз погоды и архив. Всё, что Вы хотите узнать о погоде в Медвежьегорске!

Хотите узнать прогноз погоды в Медвежьегорске? Тогда Вам сюда: Погода в Медвежьегорске

Поиск расширенной информации на нашем сайте:

Другие новости

Новости СМИ2

Главная страница сайта

Новости сайта

02.10.2013

Напоминаем, что на нашем новом сайте вы можете получить высокодетализированные прогнозы погоды по пунктам России, СНГ и мира (включающие важные для авиации метеовеличины, такие как направление и скорость ветра, видимость, явления погоды, количество и форма облачности, нижняя и верхняя граница облачности), а также ознакомиться с разнообразными материалами по авиационной метеорологии и подборкой полезных ссылок на эту тему.

Сайт Метеоцентр.Азия посвящён разработке технологий оптимизации авиаметеорологического обслуживания, включая проектирование и перспективное создание нескольких автоматизированных авиаметеорологических систем:
- система выпуска высокодетальных прогностических карт явлений погоды для нижнего воздушного пространства по России и ближнему зарубежью;
- система верификации прогнозов TAF (выпускаемых синоптиками официальных АМСГ РФ и ближнего зарубежья) и AUTOTAF (выпускаемых сайтом Метеоцентр.Азия) - выявление ошибок, онлайн-сопоставление с фактической погодой METAR, автоматическое внесение коррективов в прогнозы при резком отклонении фактической погоды от прогноза, подсчёт оправдываемости прогнозов по элементам и в целом;
- система обработки, анализа и отображения авиаметеорологической информации для применения провайдерами метеорологической информации.


Погода в Медвежьегорске - сегодня

Время (UTC), дата Ветер
(°,м/с) 
Видим.   Явления Облачность Т
(°С)
Тd
(°С)
f(%) Тe
(°С)
Pmin
(гПа)
dP
(гПа)
Po
(мм)
O2
(г/м3)
Тmin Tmax R s Состояние
почвы
09 26.04.17 140 (ЮВ) 3{11}  4700 м  слаб. ливневой дождь со снегом [диам. отлож. мокр. снега 8 мм]  10/10 120 м кучево-дожд. 
[Cb cap]
+0.1 +0.1 100 -2  995.5  -1.5  739  298           
12 26.04.17 190 (Ю) 20000 м  в посл. час ливневой дождь [диам. отлож. мокр. снега 0 мм]  9/9 480 м кучево-дожд. 
[Cb cap]
+3.4 +1.8 89 +3  997.5  2.1  741  294           
15 26.04.17 160 (Ю) 20000 м  в посл. час ливневой дождь  8/8 1230 м кучево-дожд. 
[Cb cap]
+4.2 -1.2 68 +4  998.2  0.7  741  294      10     
18 26.04.17 110 (В) 20000 м  {ливн. осадки}  9/9 1080 м 
[Sc]
+1.5 -1 83 +2  997.4  -0.8  741  297    +4.8  10     
21 26.04.17 140 (ЮВ) 10 км    10/10 800 м 
[Sc]
+1.3 -0.3 89 +2  996.5  -0.9  740  297           
00 27.04.17 190 (Ю) 10 км  {ливн. осадки}  10/10 540 м кучево-дожд. 
[Cb cap]
+0.8 -0.7 90 996.4  -0.2  740  297           
03 27.04.17 190 (Ю) 6000 м  слаб. ливневой снег  10/10 450 м кучево-дожд. 
[Cb cap]
+1 -0.8 88 997  0.6  740  297  +0.6    0.5     
06 27.04.17 230 (ЮЗ) 7000 м  слаб. ливневой снег  10/10 800 м кучево-дожд. 
[Cb cap]
+1.9 -1.4 79 +1  998.3  1.4  741  297  +0.6    0.9  32  равномерный
мокрый или
старый снег
100% 
09 27.04.17 280 (З) 2{10}  6000 м  слаб. ливневой снег  10/10 400 м кучево-дожд. 
[Cb cap]
+2 -0.2 85 +1  1000.9  2.5  743  297           
12 27.04.17 240 (ЮЗ) 20000 м  {ливн. осадки}  8/5 600 м средняя 
[Sc|Ac trans]
+4.7 -0.7 68 +4  1003.3  2.4  745  295           
15 27.04.17 280 (З) 3{11}  20000 м  {ливн. осадки}  9/9 720 м кучево-дожд. 
[Cb cap]
+4.5 -2.4 61 +3  1005.5  2.2  747  296      0.5     
18 27.04.17 280 (З) 2{11}  20000 м  {ливн. осадки}  9/9 960 м 
[Sc]
+3.1 -2.1 69 +3  1007.9  2.4  748  298    +4.9  0.5     
21 27.04.17 290 (З) 20000 м    10/10 1500 м 
[Sc]
+2.2 -1.5 76 +2  1009.6  1.6  750  300           
00 28.04.17 290 (З) 10 км  в посл. час ливневой дождь  6/6 300 м кучево-дожд. 
[Cb cap]
+1.1 -0.4 90 1011.6  751  301           
03 28.04.17 290 (З) 20000 м    10/10 570 м 
[Sc]
+1.2 -0.9 86 +1  1013.4  1.7  752  302  +0.3    0.0     
06 28.04.17 310 (СЗ) 4300 м  слаб. ливневой снег  10/10 1380 м кучево-дожд. 
[Cb cap]
+2.4 -1.8 74 +1  1016.4  755  302  +0.3    0.0  29  мокрый или
старый снег
50-90% 
09 28.04.17 320 (СЗ) 20000 м  в посл. час ливневой снег  10/10 840 м кучево-дожд. 
[Cb cap]
+1.3 -4 68 +1  1021.1  4.6  758  304           
12 28.04.17 340 (С) 20000 м  {ливн. осадки}  10/10 1320 м кучево-дожд. 
[Cb cap]
+2.4 -4.4 61 +3  1024.7  3.6  761  304           
15 28.04.17 тихо ()   20000 м    10/10 1200 м 
[Sc]
+2.3 -5.1 58 +2  1027.1  2.4  763  305      0.0     
18 28.04.17 тихо ()   20000 м    9/9 1380 м 
[Sc]
+1.1 -4.2 68 +1  1028.8  1.6  764  307    +2.7  0.0     
21 28.04.17 тихо ()   10 км    ясно 
-1.2 -4.6 78 -1  1030.7  1.8  765  310           
00 29.04.17 тихо ()   10 км    ясно 
-2.7 -5.3 82 -3  1031.7  0.9  766  312           
03 29.04.17 110 (В) 20000 м    ясно 
-2 -5.9 75 -1  1032.4  0.7  766  312  -3.2         
06 29.04.17 110 (В) 20000 м    1/1 1000 м 
[Sc]
+1.4 -6.9 54 +1  1032.1  -0.2  766  308  -3.2      27  мокрый или
старый снег
50-90% 
09 29.04.17 110 (В) 20000 м    4/0 верхняя 
[Cs]
+3.5 -6.6 48 +3  1031.6  -0.4  766  305           
Время (UTC), дата Ветер
(°,м/с) 
Видим.   Явления Облачность Т
(°С)
Тd
(°С)
f(%) Тe
(°С)
Pmin
(гПа)
dP
(гПа)
Po
(мм)
O2
(г/м3)
Тmin Tmax R s Состояние
почвы

Для получения пояснительной информации подведите курсор к названию столбца.

ПОГОДА в Медвежьегорске - архив

Всё, что Вы хотите узнать о погоде в Медвежьегорске - удобно и подробно!

Выберите нужную дату (начиная с 1 января 2015* года) и нажмите кнопку "Найти".
Будут отображены архивные сводки погоды по пункту Медвежьегорск, начиная с указанной даты.


Отображать данные в формате CSV (для использования в таблицах Excel)


Внимание! Наш архив погоды предназначен исключительно для личного некоммерческого использования в познавательных целях. Если Вам необходимы официальные справки о состоянии погоды (для производственных, юридических, коммерческих и т.п. целей), обращайтесь в органы Росгидромета.

*Примечание: данная дата относится к архиву по метеостанциям СССР (Россия, СНГ, Балтия).
Архив по метеостанциям Зарубежной Европы и Азии (кроме Китая) хранится 10 дней, по другим регионам земного шара (Китай, Африка, Америка, Австралия, Океания) - 1 день.

Медвежьегорск - район местоположения метеостанции


Название, широта, долгота, высота метеостанции:
Медвежьегорск 62.9°ш. 34.4°д. 81 м над ур. моря [Российская Федерация]

Дополнительная информация

В oтличие oт бoльшинства пoгoдных сайтoв мы публикуем пoдрoбную метеoинфoрмацию в детальнoм прoфессиoнальнoм фoрмате.

Характеристики температуры и влажнoсти вoздуха измеряются на высoте 2 м в тени вдали oт зданий и деревьев.
Скoрoсть ветра измеряется на высoте 10 м (на урoвне рoста челoвека скoрoсть ветра ниже в 1.5-2 раза). Если метеoстанция нахoдится в гoрoде или в лесу, тo скoрoсть ветра занижена на 2-4 м/с пo сравнению с oткрытым местoм. Скoрoсть ветра над акватoриями крупных рек и oзёр, а также на вершинах хoлмoв на 2-5 м/с выше, чем в oбычных услoвиях.
Атмoсфернoе давление в разных тoчках местнoсти мoжет значительнo oтличаться oт давления на метеoстанции, в зависимoсти oт услoвий рельефа (при пoдъёме на 10 м давление пoнижается примернo на 1 мм рт.ст.).